Weather History for Modesto, CA

Change the Weather History Date:

Monday, February 10, 2014

  Actual Average Record
Temperature  
Mean Temperature 58 °F -  
Max Temperature 63 °F 62 °F 75 °F (2006)
Min Temperature 53 °F 43 °F 29 °F (1939)
Degree Days  
Heating Degree Days 7 13  
Month to date heating degree days 147 139  
Since 1 July heating degree days 1555 1571  
Cooling Degree Days 0 0  
Month to date cooling degree days 0 0  
Year to date cooling degree days 0 0  
Growing Degree Days 8 (Base 50)    
Moisture  
Dew Point 53 °F    
Average Humidity 84    
Maximum Humidity 100    
Minimum Humidity 67    
Precipitation  
Precipitation T in 0.08 in 1.06 in (1962)
Month to date precipitation 0.75 0.89  
Year to date precipitation 1.25 3.50  
Since 1 July precipitation 2.74 7.86  
Snow  
Snow 0.00 in - 0.00 in (2002)
Month to date snowfall 0.0  
Since 1 July snowfall 0.0  
Snow Depth -    
Sea Level Pressure  
Sea Level Pressure 30.19 in    
Wind  
Wind Speed 6 mph (North)    
Max Wind Speed 30 mph    
Max Gust Speed 75 mph    
Visibility 7 miles    
Events Fog , Rain    
T = Trace of Precipitation, MM = Missing Value Source: NWS Daily Summary

Daily Weather History Graph

Daily Weather History Graph

Search for Another Location

Airport:

Trip Planner

Search our weather history database for the weather conditions in past years. The results will help you decide how hot, cold, wet, or windy it might be!

Date:

Astronomy

Feb. 10, 2014 Rise Set
Actual Time 6:58 AM PST 5:37 PM PST
Civil Twilight 6:31 AM PST 6:04 PM PST
Nautical Twilight 6:00 AM PST 6:35 PM PST
Astronomical Twilight 5:30 AM PST 7:06 PM PST
Moon 2:13 PM PST (2/10) 3:54 AM PST (2/10)
Length of Visible Light 11h 33m
Length of Day
10h 39m
Waxing Gibbous, 85% of the Moon is Illuminated
Feb 10
Waxing Gibbous
Feb 14
Full
Feb 22
Last Quarter
Mar 1
New
Mar 8
First Quarter

Hourly Weather History & Observations

Time (PST) Temp. Dew Point Humidity Pressure Visibility Wind Dir Wind Speed Gust Speed Precip Events Conditions
12:53 AM 57.9 °F 55.0 °F 90% 30.12 in 10.0 mi SE 8.1 mph - N/A   Overcast
1:53 AM 57.0 °F 54.0 °F 89% 30.13 in 10.0 mi SSE 5.8 mph - N/A   Clear
2:53 AM 55.0 °F 53.1 °F 93% 30.14 in 8.0 mi East 6.9 mph - N/A   Scattered Clouds
3:53 AM 54.0 °F 53.1 °F 97% 30.14 in 5.0 mi ESE 4.6 mph - N/A   Mostly Cloudy
4:18 AM 53.6 °F 53.6 °F 100% 30.13 in 1.8 mi East 6.9 mph - N/A   Mostly Cloudy
4:28 AM 53.6 °F 53.6 °F 100% 30.14 in 0.5 mi SE 5.8 mph - N/A Fog Fog
4:35 AM 53.6 °F 53.6 °F 100% 30.14 in 0.2 mi Calm Calm - N/A Fog Fog
4:53 AM 54.0 °F 54.0 °F 100% 30.14 in 0.2 mi SE 3.5 mph - N/A Fog Fog
5:05 AM 53.6 °F 53.6 °F 100% 30.15 in 0.5 mi Calm Calm - N/A Fog Fog
5:40 AM 55.4 °F 53.6 °F 94% 30.16 in 1.5 mi Calm Calm - N/A   Overcast
5:53 AM 55.0 °F 54.0 °F 96% 30.17 in 3.0 mi North 3.5 mph - 0.00 in Rain Light Rain
6:12 AM 55.4 °F 53.6 °F 94% 30.17 in 3.0 mi NNE 3.5 mph - N/A   Overcast
6:28 AM 55.4 °F 53.6 °F 94% 30.17 in 4.0 mi Calm Calm - N/A   Overcast
6:53 AM 55.0 °F 54.0 °F 96% 30.18 in 4.0 mi Calm Calm - N/A   Overcast
7:53 AM 55.9 °F 53.1 °F 90% 30.21 in 9.0 mi Calm Calm - N/A   Overcast
8:36 AM 57.2 °F 51.8 °F 82% 30.22 in 10.0 mi NNW 3.5 mph - N/A   Overcast
8:53 AM 57.0 °F 53.1 °F 87% 30.23 in 10.0 mi NNW 6.9 mph - N/A   Overcast
9:53 AM 59.0 °F 53.1 °F 81% 30.25 in 10.0 mi NW 9.2 mph - N/A   Overcast
10:33 AM 60.8 °F 53.6 °F 77% 30.26 in 10.0 mi NNW 10.4 mph - N/A   Overcast
10:53 AM 57.9 °F 54.0 °F 87% 30.27 in 10.0 mi NW 10.4 mph - N/A   Overcast
11:53 AM 60.1 °F 54.0 °F 80% 30.25 in 10.0 mi NNW 8.1 mph - N/A   Mostly Cloudy
12:18 PM 60.8 °F 53.6 °F 77% 30.24 in 10.0 mi NNW 12.7 mph - N/A   Mostly Cloudy
12:53 PM 61.0 °F 53.1 °F 75% 30.23 in 10.0 mi North - - N/A   Mostly Cloudy
1:53 PM 62.1 °F 52.0 °F 70% 30.22 in 10.0 mi NNW 13.8 mph - N/A   Overcast
2:53 PM 61.0 °F 52.0 °F 72% 30.21 in 10.0 mi NW 12.7 mph - N/A   Overcast
3:53 PM 60.1 °F 52.0 °F 75% 30.19 in 10.0 mi NNW 15.0 mph - N/A   Mostly Cloudy
4:53 PM 60.1 °F 51.1 °F 72% 30.19 in 10.0 mi NNW 15.0 mph 23.0 mph N/A   Scattered Clouds
5:53 PM 59.0 °F 51.1 °F 75% 30.19 in 10.0 mi NNW 8.1 mph 26.5 mph N/A   Clear
6:53 PM 57.9 °F 51.1 °F 78% 30.19 in 10.0 mi North 9.2 mph - N/A   Clear
7:53 PM 57.0 °F 51.1 °F 81% 30.20 in 10.0 mi North 6.9 mph - N/A   Clear
8:53 PM 55.0 °F 51.1 °F 86% 30.21 in 10.0 mi NW 5.8 mph - N/A   Clear
9:53 PM 54.0 °F 50.0 °F 86% 30.21 in 10.0 mi NW 6.9 mph - N/A   Clear
10:53 PM 53.1 °F 50.0 °F 89% 30.20 in 10.0 mi NNW 5.8 mph - N/A   Clear
11:53 PM 52.0 °F 50.0 °F 93% 30.21 in 10.0 mi Calm Calm - N/A   Clear